Location: Hylvaty SDH
(49.9612°N, 16.4057°E)
Time: 12:41:01
(UTC+01:00)

A-11 Canister half - Pass Details

Date: 09 October 2020
Orbit: 1526 x 1683 km, 47.3° (Epoch: 28 October)

Event Time Altitude Azimuth Distance (km) Brightness Sun altitude
Rises 03:38:41 0° 288° (WNW) 4,707 - -32.9°
Reaches altitude 10° 03:42:19 10° 277° (W) 3,738 - -32.4°
Maximum altitude 03:49:38 26° 225° (SW) 2,712 - -31.4°
Drops below altitude 10° 03:57:07 10° 174° (S) 3,818 - -30.4°
Exits shadow 03:57:27 - 173° (S) 3,899 10.9 -30.3°
Sets 04:00:55 0° 163° (SSE) 4,826 11.5 -29.8°
